Location: Homewood
(41.1836°S, 175.9581°E)
Time: 03:14:44
(UTC+00:00)

SeaSat 1 - Pass Details

Date: 18 April 2024
Orbit: 741 x 743 km, 108.0° (Epoch: 22 May)

Event Time Altitude Azimuth Distance (km) Brightness Sun altitude
Rises 16:44:09 0° 42° (NE) 3,181 6.2 -24.4°
Reaches altitude 10° 16:46:27 10° 47° (NE) 2,264 5.4 -24.0°
Maximum altitude 16:51:13 52° 122° (ESE) 937 3.2 -23.1°
Drops below altitude 10° 16:56:03 10° 196° (SSW) 2,289 4.8 -22.2°
Enters shadow 16:57:59 - 200° (SSW) 3,062 5.5 -21.9°
